SXS5RA EDDG-EDDL

Flight info

Callsign SXS5RA
Flight time N/A
Altitude 14000
Route DOMEG3E DOMEG T846 HALME HALME1X
Aircraft A320/M-SDE3FGHIRWY/LB1

Departure

Time 2026-04-08 10:40
Airport Münster Osnabrück Airport (EDDG)

Arrival

Time N/A
Airport Düsseldorf Airport (EDDL)
Time Latitude Longitude Altitude Speed Heading
2026-04-08 10:10 52.13133 7.69222 168 ft 0 kts 187°
2026-04-08 10:10 52.13134 7.69222 168 ft 0 kts 187°
2026-04-08 10:27 52.13136 7.69223 168 ft 3 kts 188°
2026-04-08 10:27 52.13162 7.69231 168 ft 4 kts 198°
2026-04-08 10:28 52.13187 7.69248 167 ft 4 kts 210°
2026-04-08 10:28 52.13209 7.69273 167 ft 4 kts 223°
2026-04-08 10:28 52.13227 7.69305 167 ft 4 kts 234°
2026-04-08 10:28 52.13241 7.69342 167 ft 4 kts 245°
2026-04-08 10:29 52.13251 7.69383 167 ft 4 kts 254°
2026-04-08 10:29 52.13257 7.69425 167 ft 4 kts 261°
2026-04-08 10:29 52.13260 7.69469 167 ft 4 kts 260°
2026-04-08 10:29 52.13264 7.69493 167 ft 1 kts 250°
2026-04-08 10:33 52.13262 7.69487 167 ft 4 kts 250°
2026-04-08 10:33 52.13244 7.69361 167 ft 13 kts 284°
2026-04-08 10:33 52.13331 7.69277 165 ft 17 kts 338°
2026-04-08 10:34 52.13414 7.69238 165 ft 19 kts 358°
2026-04-08 10:34 52.13462 7.69317 167 ft 0 kts 76°
2026-04-08 10:34 52.13462 7.69318 167 ft 0 kts 76°
2026-04-08 10:35 52.13481 7.69414 167 ft 16 kts 69°
2026-04-08 10:35 52.13524 7.69613 167 ft 20 kts 71°
2026-04-08 10:35 52.13575 7.69847 165 ft 24 kts 69°
2026-04-08 10:35 52.13651 7.70023 165 ft 20 kts 22°
2026-04-08 10:36 52.13766 7.69945 166 ft 16 kts 279°
2026-04-08 10:36 52.13743 7.69804 169 ft 17 kts 255°
2026-04-08 10:36 52.13688 7.69536 171 ft 31 kts 249°
2026-04-08 10:36 52.13608 7.69161 172 ft 39 kts 250°
2026-04-08 10:37 52.13509 7.68692 166 ft 47 kts 252°
2026-04-08 10:37 52.13414 7.68296 170 ft 32 kts 224°
2026-04-08 10:37 52.13286 7.68299 169 ft 18 kts 175°
2026-04-08 10:37 52.13237 7.68231 170 ft 10 kts 248°
2026-04-08 10:38 52.13193 7.68026 167 ft 26 kts 250°
2026-04-08 10:38 52.13121 7.67688 162 ft 37 kts 251°
2026-04-08 10:38 52.13053 7.67357 162 ft 29 kts 252°
2026-04-08 10:38 52.13054 7.67110 165 ft 21 kts 304°
2026-04-08 10:39 52.13064 7.67093 164 ft 2 kts 313°
2026-04-08 10:39 52.13132 7.67049 164 ft 15 kts 14°
2026-04-08 10:39 52.13196 7.67212 162 ft 25 kts 69°
2026-04-08 10:39 52.13347 7.67923 165 ft 103 kts 72°
2026-04-08 10:40 52.13656 7.69314 282 ft 146 kts 70°
2026-04-08 10:40 52.14027 7.70853 914 ft 147 kts 69°
2026-04-08 10:40 52.14451 7.72397 1445 ft 152 kts 68°
2026-04-08 10:40 52.14842 7.74025 1939 ft 157 kts 75°
2026-04-08 10:41 52.15196 7.75807 2261 ft 176 kts 75°
2026-04-08 10:41 52.15591 7.77827 2508 ft 198 kts 75°
2026-04-08 10:41 52.16029 7.80061 2808 ft 216 kts 78°
2026-04-08 10:41 52.15944 7.82524 3109 ft 226 kts 115°
2026-04-08 10:42 52.14898 7.84423 3602 ft 234 kts 148°
2026-04-08 10:42 52.13423 7.85572 4146 ft 237 kts 154°
2026-04-08 10:42 52.11855 7.86518 4638 ft 246 kts 169°
2026-04-08 10:42 52.10121 7.86354 5033 ft 261 kts 198°
2026-04-08 10:43 52.08399 7.85161 5378 ft 275 kts 204°
2026-04-08 10:43 52.06636 7.83872 5912 ft 281 kts 204°
2026-04-08 10:43 52.04836 7.82569 6471 ft 285 kts 204°
2026-04-08 10:43 52.03007 7.81263 6997 ft 289 kts 204°
2026-04-08 10:44 52.01151 7.79949 7538 ft 291 kts 204°
2026-04-08 10:44 51.99312 7.78648 8066 ft 293 kts 204°
2026-04-08 10:44 51.97436 7.77321 8589 ft 296 kts 205°
2026-04-08 10:44 51.95517 7.75962 9124 ft 298 kts 205°
2026-04-08 10:45 51.93605 7.74612 9632 ft 301 kts 205°
2026-04-08 10:45 51.91677 7.73254 10121 ft 303 kts 206°